Lid_Strength_Index
11 11 12 12 12 12 13 12 15 12 13 10 8 8 8 7 7 7 7 8 8 8 8 7 7 7 7 8 7 6 6 5 5 4 4 4 4 4 4 4 5 4 5 4
13 13 13 14 12 12 12 11 12 11 13 8 7 7 8 8 8 8 8 8 8 7 7 7 8 8 8 8 7 6 5 5 4 4 4 4 4 4 5 5 5 5 5 4
17 13 14 16 13 12 11 10 11 14 10 8 9 9 8 8 7 8 7 8 9 7 7 8 8 8 8 7 6 6 5 5 5 5 5 5 5 5 5 5 5 5 5 4
17 15 20 13 9 9 10 10 9 9 9 8 8 7 7 6 7 7 7 8 8 8 8 8 8 7 6 6 6 5 5 5 5 5 5 5 5 5 5 5 5 5 5 4
18 18 15 12 11 12 12 13 9 10 9 8 7 7 8 5 5 7 7 8 8 8 8 8 7 6 7 6 5 6 5 5 5 5 5 5 5 5 5 5 5 6 5 5
16 19 20 13 10 8 9 16 9 8 9 9 8 12 10 6 6 8 8 9 10 8 7 7 7 6 5 6 5 5 6 6 5 5 5 5 5 5 5 5 6 6 6 5
16 17 14 10 9 8 15 15 9 8 8 8 9 7 6 7 8 9 10 9 8 7 7 7 6 5 5 6 6 5 6 5 5 5 5 5 5 5 5 6 6 6 6 6
14 16 18 8 9 13 10 8 7 7 7 7 7 6 7 7 8 10 11 9 8 8 7 6 5 6 6 6 5 6 6 6 5 5 6 5 5 6 6 6 6 7 6 6
14 14 9 7 8 7 7 7 7 7 7 7 8 8 8 9 10 10 10 9 7 8 7 6 6 5 6 6 5 6 6 6 6 6 6 6 6 6 6 6 6 6 6 6
12 10 10 8 8 8 6 6 6 6 6 6 7 8 10 10 9 9 8 8 7 7 7 7 6 5 5 5 5 6 6 6 6 6 6 6 7 7 7 6 6 7 7 6
11 9 8 8 9 9 6 6 6 6 7 7 7 9 9 9 9 8 8 7 7 7 7 6 5 6 6 6 6 6 7 6 6 6 6 6 7 7 7 8 8 6 7 6
12 10 10 10 9 7 7 6 7 7 8 7 8 8 8 9 8 8 8 7 7 6 6 6 6 6 6 6 6 6 7 6 6 6 6 6 7 8 12 12 12 13 12 9
10 9 9 8 8 6 7 6 7 7 8 8 8 9 9 9 9 9 8 8 7 7 6 6 6 6 6 6 6 6 7 6 6 7 6 6 6 6 8 10 12 12 12 12
8 8 9 10 10 7 7 6 6 8 8 9 8 8 8 9 9 9 9 8 8 8 8 7 7 7 7 6 6 6 6 9 6 6 6 6 6 6 6 7 10 11 12 11
9 9 10 9 9 6 7 7 8 9 9 9 8 9 9 9 9 10 9 8 8 9 9 8 7 8 7 7 7 7 7 7 6 7 7 7 7 6 7 9 10 10 9 11
9 9 10 11 11 10 8 9 8 9 8 9 9 9 9 10 10 11 10 10 9 10 10 9 10 9 9 8 8 8 7 10 9 7 8 7 8 8 8 9 9 8 8 9
10 11 11 12 12 12 11 10 10 9 9 9 8 9 10 11 11 12 12 12 12 11 10 10 10 8 8 7 7 7 7 8 12 8 8 8 8 8 8 10 9 8 9 10
10 10 11 11 11 12 12 12 11 11 11 10 10 10 10 11 13 13 13 13 13 12 11 9 9 8 8 8 7 7 7 8 8 8 8 8 8 8 8 8 8 9 10 12
10 10 11 11 11 12 12 12 12 12 12 12 12 13 12 13 13 14 13 13 13 13 12 10 12 10 8 9 8 7 7 7 7 8 8 10 8 7 8 9 9 10 10 11
9 10 10 11 11 12 13 13 12 12 12 12 12 13 15 15 15 14 13 14 13 12 11 10 10 9 9 9 11 7 7 7 7 8 9 8 8 9 10 12 11 10 10 11
8 9 10 11 12 12 12 12 13 14 13 13 14 15 15 15 15 15 15 15 14 13 11 12 11 10 9 10 9 8 8 7 8 9 10 8 10 9 11 11 11 11 11 11
7 7 8 10 11 13 13 13 13 14 14 15 15 15 14 15 15 15 15 15 14 14 12 11 10 13 11 14 10 9 8 8 8 9 10 9 9 11 11 11 12 12 12 11
6 7 8 10 11 13 13 13 14 14 14 14 15 15 15 15 15 15 15 14 12 13 12 12 14 15 15 9 8 8 7 8 9 10 11 10 9 11 11 12 12 12 12 12
6 7 8 9 10 12 14 13 13 14 14 14 15 15 15 15 15 13 12 14 14 13 11 11 13 15 15 10 9 8 8 9 9 9 10 12 10 11 12 12 12 12 12 12
6 6 8 9 10 12 12 13 13 14 14 15 15 14 14 13 13 14 12 13 15 13 12 14 15 15 12 11 10 9 9 9 9 10 10 11 11 12 12 11 11 11 12 12
6 6 7 7 9 10 11 12 13 13 14 14 13 13 13 12 13 12 13 13 13 13 12 12 12 12 11 10 10 10 11 12 12 11 12 11 11 11 11 12 12 12 12 13
6 7 7 7 8 9 9 11 12 13 12 12 13 13 12 12 13 13 14 13 13 12 12 12 12 13 12 12 12 12 12 13 12 11 11 11 11 11 11 12 12 12 12 12